This is the latest recevied weather packets stored in our database for station/object W4UWO. If no packets are shown the sender has not sent any weather packets the latest 10 day(s).
| Time | Temp. | Humidity | Pressure | Rain* | Wind** | Luminosity | Snow |
|---|---|---|---|---|---|---|---|
| 1788537622 | 35.56° C | 49% | 1018.2 hPa | 0 mm | - | 690 W/m² | - |
| 1788537320 | 36.11° C | 48% | 1018.2 hPa | 0 mm | - | 678 W/m² | - |
| 1788537020 | 35.56° C | 49% | 1018.4 hPa | 0 mm | - | 665 W/m² | - |
| 1788536714 | 35.56° C | 51% | 1018.3 hPa | 0 mm | - | 655 W/m² | - |
| 1788536409 | 35° C | 50% | 1018.5 hPa | 0 mm | - | 645 W/m² | - |
| 1788536109 | 35° C | 53% | 1018.3 hPa | 0 mm | - | 631 W/m² | - |
| 1788535806 | 34.44° C | 55% | 1018.4 hPa | 0 mm | - | 621 W/m² | - |
| 1788535501 | 34.44° C | 54% | 1018.4 hPa | 0 mm | - | 615 W/m² | - |
| 1788535220 | 34.44° C | 53% | 1018.4 hPa | 0 mm | - | 596 W/m² | - |
| 1788534891 | 34.44° C | 54% | 1018.4 hPa | 0 mm | - | 586 W/m² | - |
| 1788534590 | 33.89° C | 54% | 1018.3 hPa | 0 mm | - | 576 W/m² | - |
| 1788534286 | 33.33° C | 56% | 1018.4 hPa | 0 mm | - | 559 W/m² | - |
| 1788533984 | 33.89° C | 56% | 1018.4 hPa | 0 mm | - | 542 W/m² | - |
| 1788533680 | 32.78° C | 58% | 1018.3 hPa | 0 mm | - | 533 W/m² | - |
| 1788533375 | 33.33° C | 57% | 1018.3 hPa | 0 mm | - | 516 W/m² | - |
| 1788533071 | 32.78° C | 58% | 1018.1 hPa | 0 mm | - | 507 W/m² | - |
| 1788532766 | 32.22° C | 60% | 1018.4 hPa | 0 mm | - | 494 W/m² | - |
| 1788532463 | 32.22° C | 60% | 1018.3 hPa | 0 mm | - | 475 W/m² | - |
| 1788532176 | 32.22° C | 61% | 1018.2 hPa | 0 mm | - | 458 W/m² | - |
| 1788531855 | 31.67° C | 64% | 1018 hPa | 0 mm | - | 442 W/m² | - |
| 1788531549 | 31.67° C | 62% | 1018.3 hPa | 0 mm | - | 427 W/m² | - |
| 1788531245 | 31.67° C | 64% | 1018.2 hPa | 0 mm | - | 413 W/m² | - |
| 1788530941 | 30.56° C | 65% | 1018.2 hPa | 0 mm | - | 396 W/m² | - |
| 1788530645 | 30.56° C | 65% | 1018.3 hPa | 0 mm | - | 379 W/m² | - |
| 1788530340 | 31.11° C | 66% | 1018.3 hPa | 0 mm | - | 362 W/m² | - |
* Rain latest hour (hover to see other rain measurements)
** Current wind speed in m/s (hover to see current wind gust speed)